QPF
0.09 0.07 0.06 0.05 0.05 0.05 0.04 0.03 0.03 0.03 0.03 0.02 0.02 0.03 0.05 0.11 0.15 0.16 0.13 0.08 0.07 0.10 0.14 0.12 0.08 0.07 0.06 0.06 0.13 0.14 0.18 0.17 0.12 0.09 0.06 0.04 0.03 0.02 0.03 0.04 0.05 0.05 0.05
0.07 0.08 0.07 0.06 0.07 0.06 0.04 0.03 0.03 0.03 0.03 0.02 0.02 0.01 0.03 0.08 0.13 0.12 0.08 0.05 0.05 0.09 0.16 0.19 0.16 0.10 0.09 0.10 0.22 0.19 0.13 0.09 0.08 0.07 0.05 0.03 0.03 0.04 0.04 0.04 0.04 0.04 0.04
0.04 0.06 0.05 0.06 0.06 0.06 0.05 0.04 0.04 0.03 0.02 0.02 0.03 0.02 0.03 0.06 0.10 0.11 0.06 0.04 0.04 0.06 0.10 0.14 0.18 0.15 0.13 0.16 0.21 0.19 0.16 0.12 0.09 0.07 0.06 0.05 0.04 0.04 0.03 0.03 0.02 0.03 0.02
0.01 0.02 0.02 0.04 0.04 0.05 0.05 0.05 0.05 0.04 0.03 0.03 0.03 0.03 0.03 0.05 0.06 0.08 0.06 0.03 0.03 0.04 0.05 0.10 0.17 0.20 0.18 0.18 0.21 0.17 0.14 0.13 0.14 0.12 0.09 0.08 0.06 0.04 0.03 0.03 0.02 0.02 0.02
0.02 0.02 0.01 0.02 0.03 0.03 0.04 0.03 0.03 0.04 0.04 0.04 0.04 0.05 0.05 0.06 0.06 0.06 0.06 0.04 0.03 0.04 0.04 0.05 0.15 0.26 0.18 0.07 0.09 0.12 0.10 0.10 0.11 0.10 0.08 0.06 0.04 0.03 0.03 0.02 0.01 0.02 0.01
0.02 0.02 0.01 0.01 0.01 0.02 0.03 0.03 0.03 0.02 0.03 0.04 0.04 0.05 0.07 0.06 0.06 0.05 0.05 0.05 0.04 0.03 0.04 0.05 0.08 0.14 0.13 0.07 0.06 0.07 0.09 0.07 0.07 0.06 0.05 0.04 0.03 0.02 0.02 0.02 0.02 0.02 0.02
0.02 0.02 0.01 0.00 0.01 0.01 0.01 0.01 0.02 0.02 0.02 0.03 0.04 0.05 0.07 0.07 0.08 0.06 0.04 0.03 0.03 0.03 0.04 0.06 0.07 0.10 0.09 0.05 0.05 0.05 0.06 0.06 0.05 0.05 0.04 0.03 0.03 0.02 0.02 0.03 0.04 0.03 0.02
0.02 0.02 0.00 0.00 0.01 0.02 0.01 0.01 0.01 0.02 0.02 0.02 0.03 0.05 0.06 0.09 0.10 0.09 0.07 0.05 0.04 0.04 0.04 0.04 0.05 0.05 0.05 0.04 0.02 0.02 0.03 0.03 0.03 0.04 0.04 0.04 0.03 0.02 0.02 0.03 0.04 0.03 0.02
0.01 0.02 0.01 0.01 0.01 0.01 0.01 0.01 0.01 0.02 0.02 0.03 0.03 0.04 0.06 0.08 0.09 0.09 0.07 0.06 0.06 0.04 0.03 0.03 0.04 0.03 0.02 0.02 0.02 0.01 0.01 0.01 0.02 0.03 0.03 0.03 0.03 0.03 0.02 0.03 0.03 0.03 0.03
0.01 0.02 0.02 0.01 0.01 0.00 0.01 0.01 0.01 0.01 0.02 0.03 0.03 0.04 0.04 0.05 0.06 0.07 0.06 0.06 0.05 0.04 0.03 0.02 0.02 0.03 0.03 0.03 0.02 0.01 0.00 0.01 0.01 0.02 0.03 0.04 0.03 0.03 0.02 0.02 0.03 0.04 0.03
0.01 0.01 0.01 0.01 0.01 0.00 0.00 0.01 0.01 0.01 0.02 0.02 0.02 0.03 0.03 0.03 0.03 0.03 0.05 0.05 0.04 0.04 0.03 0.02 0.02 0.02 0.03 0.02 0.03 0.01 0.01 0.01 0.00 0.01 0.03 0.05 0.05 0.04 0.03 0.03 0.03 0.03 0.03
0.01 0.01 0.00 0.01 0.01 0.01 0.01 0.01 0.01 0.01 0.01 0.01 0.02 0.03 0.03 0.03 0.03 0.02 0.03 0.03 0.04 0.04 0.04 0.03 0.03 0.02 0.02 0.02 0.02 0.01 0.01 0.01 0.01 0.01 0.02 0.03 0.04 0.05 0.05 0.04 0.03 0.03 0.02
0.01 0.01 0.01 0.00 0.01 0.01 0.02 0.02 0.02 0.01 0.01 0.01 0.01 0.01 0.02 0.02 0.03 0.03 0.03 0.03 0.03 0.04 0.03 0.03 0.03 0.03 0.02 0.02 0.02 0.02 0.01 0.01 0.01 0.00 0.01 0.02 0.03 0.05 0.06 0.05 0.03 0.03 0.03
0.01 0.00 0.00 0.01 0.00 0.00 0.02 0.03 0.03 0.02 0.01 0.01 0.00 0.00 0.01 0.01 0.02 0.03 0.04 0.04 0.04 0.04 0.04 0.03 0.02 0.02 0.02 0.03 0.02 0.02 0.02 0.01 0.01 0.00 0.01 0.02 0.04 0.05 0.05 0.05 0.04 0.03 0.04
0.01 0.00 0.00 0.00 0.00 0.00 0.02 0.03 0.02 0.01 0.01 0.01 0.00 0.00 0.00 0.01 0.01 0.01 0.02 0.03 0.04 0.05 0.04 0.04 0.02 0.02 0.01 0.01 0.01 0.01 0.01 0.02 0.02 0.01 0.02 0.02 0.03 0.04 0.04 0.04 0.04 0.04 0.05
0.01 0.00 0.00 0.00 0.00 0.00 0.01 0.01 0.01 0.01 0.02 0.01 0.01 0.00 0.00 0.01 0.02 0.02 0.02 0.02 0.02 0.02 0.04 0.04 0.03 0.01 0.00 0.00 0.01 0.01 0.01 0.02 0.02 0.02 0.02 0.03 0.03 0.04 0.04 0.04 0.03 0.03 0.03
0.01 0.01 0.01 0.01 0.01 0.01 0.01 0.01 0.01 0.01 0.01 0.01 0.01 0.01 0.01 0.01 0.03 0.04 0.03 0.02 0.01 0.01 0.04 0.03 0.02 0.02 0.01 0.01 0.01 0.01 0.01 0.02 0.03 0.04 0.04 0.03 0.03 0.05 0.06 0.04 0.03 0.02 0.03
0.01 0.01 0.02 0.01 0.01 0.00 0.00 0.01 0.01 0.01 0.01 0.01 0.01 0.01 0.01 0.02 0.02 0.03 0.03 0.02 0.01 0.01 0.02 0.02 0.01 0.01 0.01 0.02 0.01 0.00 0.01 0.02 0.03 0.05 0.05 0.04 0.04 0.05 0.09 0.06 0.04 0.03 0.03
0.00 0.00 0.01 0.01 0.01 0.01 0.01 0.00 0.01 0.01 0.01 0.01 0.00 0.00 0.01 0.01 0.02 0.02 0.02 0.01 0.01 0.01 0.01 0.02 0.02 0.01 0.01 0.02 0.02 0.01 0.01 0.03 0.03 0.04 0.04 0.04 0.04 0.04 0.05 0.05 0.04 0.03 0.04
0.01 0.01 0.01 0.02 0.02 0.01 0.01 0.01 0.01 0.00 0.01 0.01 0.00 0.00 0.00 0.00 0.01 0.01 0.02 0.02 0.01 0.01 0.01 0.01 0.02 0.02 0.02 0.02 0.02 0.01 0.02 0.02 0.02 0.03 0.03 0.04 0.04 0.03 0.04 0.04 0.03 0.02 0.02
0.01 0.01 0.01 0.02 0.02 0.02 0.02 0.01 0.01 0.01 0.01 0.01 0.01 0.01 0.00 0.01 0.02 0.02 0.02 0.01 0.02 0.02 0.02 0.02 0.02 0.02 0.02 0.02 0.02 0.01 0.01 0.01 0.01 0.01 0.02 0.02 0.04 0.03 0.03 0.03 0.04 0.03 0.02
0.01 0.01 0.01 0.02 0.02 0.02 0.02 0.02 0.02 0.01 0.01 0.02 0.02 0.01 0.01 0.01 0.01 0.02 0.02 0.02 0.02 0.03 0.03 0.03 0.02 0.02 0.02 0.02 0.02 0.02 0.02 0.01 0.01 0.01 0.01 0.02 0.03 0.04 0.04 0.03 0.03 0.03 0.03
0.02 0.03 0.03 0.02 0.02 0.02 0.03 0.03 0.03 0.02 0.02 0.02 0.02 0.02 0.02 0.01 0.01 0.01 0.01 0.01 0.01 0.02 0.03 0.03 0.02 0.01 0.01 0.01 0.02 0.02 0.02 0.02 0.02 0.01 0.01 0.02 0.02 0.03 0.04 0.05 0.04 0.03 0.02
0.02 0.03 0.04 0.03 0.02 0.02 0.04 0.03 0.03 0.03 0.03 0.02 0.02 0.02 0.02 0.02 0.02 0.01 0.01 0.01 0.01 0.01 0.01 0.01 0.01 0.01 0.01 0.01 0.02 0.03 0.03 0.02 0.02 0.02 0.01 0.02 0.02 0.02 0.02 0.04 0.05 0.05 0.04
0.03 0.03 0.03 0.03 0.02 0.02 0.04 0.03 0.03 0.03 0.03 0.03 0.03 0.03 0.03 0.03 0.04 0.03 0.03 0.02 0.02 0.01 0.01 0.01 0.01 0.02 0.03 0.03 0.02 0.03 0.04 0.04 0.03 0.02 0.01 0.02 0.02 0.01 0.02 0.02 0.03 0.05 0.05
0.03 0.03 0.03 0.03 0.03 0.04 0.06 0.05 0.04 0.03 0.02 0.03 0.03 0.03 0.03 0.03 0.04 0.04 0.03 0.04 0.04 0.03 0.02 0.02 0.02 0.01 0.02 0.03 0.03 0.02 0.03 0.03 0.02 0.02 0.01 0.01 0.02 0.02 0.03 0.03 0.02 0.03 0.05
MSLP
1015.88 1016.06 1016.21 1016.35 1016.48 1016.64 1016.84 1017.07 1017.34 1017.65 1017.98 1018.34 1018.70 1019.07 1019.42 1019.74 1020.03 1020.27 1020.47 1020.62 1020.73 1020.84 1020.95 1021.08 1021.24 1021.43 1021.62 1021.78 1021.91 1021.97 1021.98 1021.94 1021.88 1021.81 1021.75 1021.72 1021.71 1021.70 1021.67 1021.59 1021.44 1021.23 1020.99
1016.34 1016.55 1016.74 1016.93 1017.13 1017.35 1017.60 1017.87 1018.17 1018.48 1018.80 1019.14 1019.48 1019.84 1020.19 1020.52 1020.83 1021.09 1021.30 1021.46 1021.59 1021.69 1021.79 1021.91 1022.05 1022.21 1022.37 1022.51 1022.61 1022.65 1022.64 1022.57 1022.49 1022.40 1022.34 1022.32 1022.32 1022.34 1022.33 1022.28 1022.16 1021.96 1021.72
1016.74 1016.98 1017.22 1017.48 1017.76 1018.06 1018.38 1018.71 1019.03 1019.35 1019.66 1019.97 1020.30 1020.63 1020.97 1021.30 1021.61 1021.89 1022.12 1022.29 1022.42 1022.51 1022.60 1022.69 1022.80 1022.93 1023.06 1023.17 1023.24 1023.26 1023.23 1023.15 1023.05 1022.96 1022.90 1022.88 1022.90 1022.94 1022.97 1022.94 1022.85 1022.67 1022.43
1017.16 1017.41 1017.70 1018.03 1018.39 1018.77 1019.16 1019.54 1019.90 1020.23 1020.53 1020.82 1021.12 1021.43 1021.74 1022.07 1022.38 1022.66 1022.90 1023.08 1023.20 1023.29 1023.36 1023.43 1023.50 1023.60 1023.69 1023.78 1023.82 1023.83 1023.78 1023.69 1023.58 1023.48 1023.42 1023.41 1023.44 1023.50 1023.54 1023.55 1023.48 1023.33 1023.10
1017.63 1017.89 1018.21 1018.58 1019.01 1019.46 1019.91 1020.33 1020.72 1021.06 1021.36 1021.63 1021.91 1022.19 1022.49 1022.81 1023.12 1023.40 1023.64 1023.82 1023.94 1024.02 1024.07 1024.12 1024.17 1024.23 1024.30 1024.36 1024.39 1024.38 1024.32 1024.22 1024.10 1024.00 1023.93 1023.91 1023.93 1023.99 1024.05 1024.07 1024.03 1023.90 1023.69
1018.17 1018.42 1018.75 1019.14 1019.59 1020.08 1020.57 1021.02 1021.43 1021.78 1022.07 1022.34 1022.60 1022.88 1023.17 1023.48 1023.79 1024.08 1024.33 1024.51 1024.64 1024.71 1024.76 1024.79 1024.82 1024.86 1024.92 1024.96 1024.98 1024.95 1024.88 1024.77 1024.64 1024.52 1024.43 1024.39 1024.40 1024.44 1024.49 1024.52 1024.49 1024.39 1024.21
1018.75 1018.98 1019.28 1019.67 1020.12 1020.60 1021.09 1021.56 1021.97 1022.32 1022.62 1022.89 1023.16 1023.44 1023.74 1024.06 1024.38 1024.68 1024.94 1025.15 1025.28 1025.37 1025.42 1025.44 1025.47 1025.51 1025.55 1025.59 1025.60 1025.56 1025.48 1025.36 1025.21 1025.06 1024.93 1024.86 1024.83 1024.85 1024.89 1024.92 1024.91 1024.83 1024.68
1019.35 1019.53 1019.80 1020.14 1020.55 1021.01 1021.47 1021.92 1022.32 1022.67 1022.97 1023.26 1023.54 1023.84 1024.16 1024.51 1024.86 1025.19 1025.48 1025.71 1025.87 1025.98 1026.05 1026.09 1026.13 1026.18 1026.22 1026.25 1026.26 1026.21 1026.11 1025.97 1025.79 1025.61 1025.45 1025.33 1025.27 1025.25 1025.27 1025.30 1025.30 1025.26 1025.15
1019.90 1020.05 1020.26 1020.54 1020.89 1021.29 1021.70 1022.11 1022.48 1022.82 1023.13 1023.43 1023.74 1024.07 1024.43 1024.81 1025.20 1025.57 1025.90 1026.17 1026.38 1026.53 1026.63 1026.71 1026.78 1026.85 1026.90 1026.93 1026.93 1026.87 1026.76 1026.59 1026.38 1026.17 1025.97 1025.81 1025.71 1025.67 1025.67 1025.70 1025.72 1025.71 1025.66
1020.38 1020.49 1020.65 1020.87 1021.15 1021.48 1021.83 1022.18 1022.51 1022.83 1023.14 1023.45 1023.78 1024.15 1024.54 1024.96 1025.39 1025.81 1026.18 1026.51 1026.77 1026.98 1027.14 1027.27 1027.38 1027.48 1027.55 1027.59 1027.59 1027.52 1027.39 1027.20 1026.97 1026.72 1026.50 1026.31 1026.18 1026.12 1026.11 1026.14 1026.18 1026.21 1026.21
1020.76 1020.85 1020.98 1021.15 1021.37 1021.63 1021.91 1022.20 1022.50 1022.79 1023.08 1023.39 1023.74 1024.12 1024.53 1024.98 1025.44 1025.90 1026.32 1026.70 1027.03 1027.31 1027.54 1027.74 1027.90 1028.04 1028.15 1028.20 1028.20 1028.13 1027.99 1027.79 1027.54 1027.28 1027.03 1026.83 1026.70 1026.62 1026.61 1026.65 1026.71 1026.77 1026.81
1021.04 1021.14 1021.25 1021.40 1021.57 1021.78 1022.01 1022.25 1022.50 1022.75 1023.03 1023.32 1023.65 1024.03 1024.45 1024.90 1025.37 1025.85 1026.31 1026.74 1027.14 1027.49 1027.80 1028.07 1028.31 1028.51 1028.65 1028.74 1028.75 1028.69 1028.54 1028.34 1028.09 1027.83 1027.59 1027.40 1027.26 1027.19 1027.19 1027.23 1027.30 1027.37 1027.44
1021.22 1021.35 1021.48 1021.62 1021.78 1021.97 1022.16 1022.37 1022.58 1022.80 1023.04 1023.30 1023.60 1023.94 1024.33 1024.76 1025.22 1025.70 1026.18 1026.65 1027.10 1027.52 1027.92 1028.27 1028.59 1028.86 1029.06 1029.18 1029.23 1029.18 1029.06 1028.87 1028.64 1028.40 1028.19 1028.01 1027.89 1027.83 1027.83 1027.88 1027.95 1028.02 1028.09
1021.30 1021.48 1021.64 1021.82 1022.00 1022.18 1022.37 1022.57 1022.76 1022.95 1023.15 1023.37 1023.62 1023.90 1024.24 1024.62 1025.03 1025.49 1025.97 1026.46 1026.95 1027.44 1027.91 1028.36 1028.75 1029.10 1029.37 1029.55 1029.64 1029.64 1029.55 1029.40 1029.21 1029.01 1028.83 1028.68 1028.59 1028.55 1028.56 1028.60 1028.65 1028.71 1028.76
1021.30 1021.52 1021.74 1021.96 1022.18 1022.40 1022.62 1022.82 1023.01 1023.19 1023.36 1023.54 1023.73 1023.95 1024.21 1024.52 1024.87 1025.28 1025.73 1026.23 1026.75 1027.28 1027.82 1028.34 1028.83 1029.25 1029.59 1029.85 1030.00 1030.05 1030.02 1029.93 1029.79 1029.65 1029.52 1029.42 1029.37 1029.35 1029.36 1029.38 1029.41 1029.43 1029.44
1021.23 1021.49 1021.76 1022.04 1022.31 1022.59 1022.85 1023.09 1023.31 1023.49 1023.65 1023.79 1023.94 1024.09 1024.28 1024.50 1024.79 1025.13 1025.54 1026.02 1026.54 1027.11 1027.70 1028.29 1028.84 1029.34 1029.76 1030.09 1030.32 1030.44 1030.48 1030.46 1030.39 1030.32 1030.25 1030.21 1030.19 1030.19 1030.21 1030.22 1030.21 1030.19 1030.15
1021.09 1021.38 1021.69 1022.01 1022.35 1022.69 1023.01 1023.31 1023.57 1023.79 1023.96 1024.10 1024.22 1024.33 1024.45 1024.61 1024.82 1025.11 1025.46 1025.90 1026.41 1026.99 1027.60 1028.22 1028.83 1029.40 1029.89 1030.29 1030.59 1030.79 1030.91 1030.96 1030.98 1030.98 1030.98 1030.99 1031.02 1031.04 1031.07 1031.07 1031.04 1030.98 1030.88
1020.91 1021.21 1021.53 1021.89 1022.28 1022.67 1023.07 1023.43 1023.76 1024.04 1024.26 1024.42 1024.54 1024.64 1024.73 1024.85 1025.00 1025.23 1025.53 1025.92 1026.40 1026.95 1027.56 1028.20 1028.83 1029.43 1029.97 1030.43 1030.80 1031.07 1031.27 1031.41 1031.50 1031.57 1031.64 1031.71 1031.78 1031.84 1031.88 1031.88 1031.84 1031.75 1031.63
1020.73 1021.01 1021.33 1021.70 1022.12 1022.56 1023.01 1023.45 1023.85 1024.20 1024.48 1024.70 1024.86 1024.98 1025.08 1025.18 1025.31 1025.50 1025.75 1026.09 1026.52 1027.03 1027.61 1028.22 1028.85 1029.46 1030.02 1030.51 1030.92 1031.26 1031.52 1031.73 1031.90 1032.04 1032.18 1032.30 1032.42 1032.52 1032.58 1032.60 1032.56 1032.48 1032.35
1020.56 1020.82 1021.12 1021.49 1021.91 1022.37 1022.86 1023.35 1023.82 1024.25 1024.61 1024.91 1025.14 1025.32 1025.46 1025.58 1025.71 1025.88 1026.10 1026.40 1026.77 1027.22 1027.74 1028.30 1028.88 1029.46 1030.01 1030.51 1030.95 1031.32 1031.64 1031.90 1032.13 1032.33 1032.52 1032.70 1032.86 1033.00 1033.09 1033.14 1033.14 1033.08 1032.97
1020.44 1020.67 1020.95 1021.30 1021.70 1022.17 1022.67 1023.19 1023.71 1024.19 1024.63 1025.01 1025.33 1025.59 1025.80 1025.98 1026.14 1026.32 1026.53 1026.78 1027.10 1027.49 1027.93 1028.42 1028.93 1029.46 1029.97 1030.45 1030.88 1031.26 1031.60 1031.90 1032.17 1032.42 1032.65 1032.87 1033.07 1033.24 1033.38 1033.47 1033.51 1033.49 1033.43
1020.36 1020.59 1020.85 1021.17 1021.54 1021.98 1022.47 1022.99 1023.53 1024.05 1024.55 1025.01 1025.41 1025.76 1026.06 1026.31 1026.53 1026.74 1026.96 1027.20 1027.47 1027.79 1028.16 1028.56 1028.99 1029.44 1029.89 1030.32 1030.72 1031.10 1031.44 1031.75 1032.04 1032.31 1032.57 1032.81 1033.04 1033.25 1033.42 1033.55 1033.64 1033.68 1033.69
1020.30 1020.55 1020.81 1021.11 1021.46 1021.85 1022.30 1022.80 1023.32 1023.85 1024.38 1024.89 1025.37 1025.80 1026.19 1026.52 1026.82 1027.09 1027.33 1027.57 1027.82 1028.09 1028.39 1028.71 1029.06 1029.42 1029.80 1030.17 1030.53 1030.87 1031.20 1031.50 1031.79 1032.07 1032.33 1032.59 1032.83 1033.05 1033.25 1033.42 1033.55 1033.65 1033.72
1020.21 1020.52 1020.81 1021.10 1021.42 1021.78 1022.18 1022.62 1023.10 1023.61 1024.14 1024.68 1025.20 1025.70 1026.17 1026.59 1026.97 1027.30 1027.60 1027.86 1028.11 1028.35 1028.60 1028.86 1029.13 1029.42 1029.73 1030.03 1030.34 1030.65 1030.94 1031.23 1031.50 1031.77 1032.02 1032.27 1032.51 1032.73 1032.94 1033.13 1033.29 1033.43 1033.54
1020.03 1020.42 1020.77 1021.09 1021.40 1021.73 1022.08 1022.46 1022.88 1023.35 1023.85 1024.39 1024.93 1025.48 1026.01 1026.50 1026.96 1027.37 1027.72 1028.03 1028.30 1028.54 1028.77 1028.99 1029.22 1029.45 1029.70 1029.96 1030.22 1030.48 1030.75 1031.00 1031.26 1031.50 1031.73 1031.96 1032.17 1032.38 1032.58 1032.76 1032.93 1033.09 1033.22
1019.69 1020.19 1020.62 1020.99 1021.32 1021.64 1021.95 1022.29 1022.66 1023.08 1023.55 1024.06 1024.61 1025.18 1025.75 1026.31 1026.83 1027.31 1027.72 1028.09 1028.40 1028.66 1028.89 1029.10 1029.31 1029.51 1029.72 1029.95 1030.18 1030.41 1030.65 1030.88 1031.10 1031.32 1031.52 1031.72 1031.90 1032.08 1032.25 1032.41 1032.57 1032.71 1032.84
Thickness
5728 5727 5726 5725 5724 5724 5724 5723 5723 5723 5723 5724 5724 5723 5723 5723 5722 5722 5721 5722 5723 5723 5723 5723 5722 5722 5721 5721 5721 5721 5721 5720 5720 5721 5721 5721 5722 5723 5724 5724 5724 5725 5725
5725 5723 5721 5720 5719 5719 5718 5718 5718 5717 5717 5717 5717 5717 5717 5717 5716 5716 5716 5716 5717 5717 5718 5718 5717 5717 5716 5716 5715 5715 5715 5715 5715 5716 5716 5717 5717 5718 5718 5719 5720 5720 5720
5722 5720 5717 5716 5715 5714 5714 5713 5713 5712 5712 5711 5711 5711 5711 5711 5711 5711 5711 5711 5711 5711 5711 5712 5711 5711 5711 5711 5710 5710 5709 5710 5710 5711 5711 5712 5712 5713 5713 5714 5715 5716 5716
5719 5716 5714 5712 5711 5710 5709 5707 5707 5705 5705 5705 5704 5705 5706 5706 5706 5706 5705 5705 5705 5705 5705 5706 5706 5705 5705 5705 5705 5705 5704 5704 5704 5705 5706 5706 5707 5708 5708 5709 5710 5711 5712
5715 5713 5710 5708 5707 5706 5704 5703 5701 5700 5699 5698 5699 5699 5700 5700 5700 5701 5701 5701 5700 5700 5700 5699 5700 5699 5698 5699 5699 5699 5699 5699 5699 5699 5700 5701 5701 5702 5703 5704 5705 5706 5707
5711 5708 5706 5705 5703 5701 5699 5698 5696 5696 5695 5694 5695 5694 5694 5694 5695 5695 5695 5696 5696 5695 5695 5694 5694 5693 5692 5692 5692 5693 5693 5693 5694 5694 5695 5695 5696 5697 5698 5699 5700 5701 5701
5706 5705 5702 5700 5698 5696 5695 5694 5692 5691 5690 5691 5688 5686 5688 5690 5690 5689 5690 5690 5690 5690 5690 5689 5688 5687 5686 5686 5686 5687 5688 5688 5688 5689 5690 5690 5691 5692 5693 5694 5695 5696 5697
5702 5701 5699 5696 5694 5692 5690 5689 5688 5685 5685 5686 5683 5678 5675 5677 5681 5685 5684 5684 5684 5685 5684 5684 5683 5682 5681 5680 5680 5681 5681 5682 5683 5684 5684 5685 5686 5687 5688 5689 5690 5691 5692
5698 5697 5695 5693 5690 5688 5686 5685 5683 5681 5678 5680 5681 5676 5669 5665 5669 5675 5678 5678 5679 5678 5678 5679 5678 5677 5676 5675 5675 5675 5676 5677 5678 5678 5679 5680 5681 5682 5683 5684 5685 5686 5687
5694 5692 5691 5689 5687 5685 5682 5681 5680 5679 5676 5673 5675 5676 5674 5671 5665 5663 5668 5671 5673 5673 5673 5674 5673 5672 5672 5671 5670 5670 5671 5671 5672 5673 5674 5675 5676 5677 5678 5679 5681 5682 5683
5690 5688 5686 5685 5683 5681 5679 5678 5676 5675 5673 5670 5669 5669 5669 5669 5669 5662 5658 5661 5665 5667 5668 5669 5668 5667 5666 5666 5665 5665 5665 5666 5667 5668 5669 5669 5670 5671 5672 5674 5675 5677 5678
5684 5684 5682 5680 5679 5677 5676 5674 5672 5671 5669 5668 5667 5666 5664 5662 5661 5660 5657 5656 5656 5659 5663 5663 5663 5662 5661 5660 5660 5660 5660 5661 5661 5662 5663 5663 5664 5665 5666 5668 5670 5672 5673
5678 5678 5678 5676 5675 5674 5672 5671 5668 5667 5666 5664 5663 5662 5662 5661 5661 5659 5655 5653 5653 5654 5656 5657 5658 5657 5656 5655 5655 5654 5655 5655 5656 5656 5657 5657 5658 5659 5660 5662 5664 5666 5667
5675 5675 5673 5671 5670 5669 5668 5666 5664 5663 5663 5661 5660 5659 5658 5658 5658 5656 5653 5650 5646 5647 5648 5649 5652 5652 5652 5651 5650 5649 5649 5650 5651 5651 5651 5651 5651 5652 5654 5655 5658 5660 5662
5673 5671 5670 5668 5667 5665 5664 5662 5659 5659 5658 5657 5656 5655 5654 5653 5653 5653 5652 5650 5644 5639 5639 5643 5644 5647 5647 5647 5645 5644 5644 5645 5646 5646 5646 5645 5645 5646 5647 5649 5651 5654 5655
5669 5668 5666 5664 5663 5661 5659 5657 5656 5655 5654 5652 5652 5651 5650 5649 5648 5648 5647 5647 5645 5641 5636 5639 5640 5642 5643 5642 5641 5640 5640 5640 5640 5640 5640 5640 5640 5640 5641 5643 5645 5647 5649
5665 5663 5662 5660 5658 5657 5655 5653 5651 5650 5649 5648 5647 5646 5645 5645 5643 5643 5643 5642 5641 5639 5634 5634 5637 5638 5638 5636 5635 5635 5635 5635 5634 5635 5634 5634 5634 5635 5636 5637 5638 5640 5642
5660 5659 5658 5656 5654 5653 5651 5649 5647 5646 5644 5643 5643 5642 5641 5641 5639 5638 5638 5637 5636 5636 5632 5629 5630 5631 5631 5631 5630 5629 5629 5629 5629 5629 5629 5629 5629 5630 5630 5631 5632 5633 5634
5655 5654 5653 5651 5649 5648 5647 5645 5644 5642 5641 5639 5639 5637 5636 5636 5634 5633 5632 5631 5631 5632 5630 5627 5625 5626 5625 5626 5624 5623 5623 5623 5624 5623 5623 5623 5623 5623 5624 5625 5625 5626 5627
5649 5648 5647 5646 5644 5643 5641 5640 5639 5637 5636 5636 5635 5634 5632 5631 5629 5629 5628 5626 5626 5625 5623 5621 5619 5619 5619 5619 5618 5616 5615 5616 5616 5617 5617 5617 5617 5617 5618 5618 5619 5619 5619
5644 5642 5641 5639 5638 5637 5636 5634 5633 5632 5631 5630 5630 5629 5628 5627 5627 5625 5624 5622 5621 5619 5616 5615 5613 5612 5612 5611 5610 5610 5609 5609 5609 5610 5610 5610 5610 5611 5610 5611 5611 5611 5612
5638 5637 5635 5633 5631 5631 5629 5629 5627 5626 5626 5625 5624 5623 5622 5621 5621 5620 5619 5618 5617 5614 5611 5609 5608 5606 5607 5606 5606 5606 5603 5602 5600 5603 5603 5602 5603 5603 5603 5604 5604 5605 5605
5632 5630 5628 5627 5625 5623 5623 5622 5621 5620 5620 5619 5618 5617 5617 5616 5615 5613 5612 5611 5610 5610 5609 5606 5603 5603 5602 5603 5601 5600 5598 5596 5595 5597 5596 5595 5595 5595 5596 5597 5597 5598 5599
5625 5623 5622 5621 5619 5618 5617 5616 5614 5613 5613 5613 5613 5612 5610 5609 5609 5607 5606 5604 5603 5603 5603 5602 5601 5600 5600 5599 5597 5596 5594 5593 5592 5592 5592 5588 5588 5588 5590 5590 5591 5591 5591
5619 5617 5616 5614 5613 5612 5611 5610 5608 5606 5606 5607 5607 5606 5605 5603 5603 5601 5600 5598 5597 5596 5597 5596 5596 5595 5595 5594 5593 5590 5587 5585 5583 5584 5585 5583 5582 5582 5583 5583 5583 5583 5583
5613 5612 5610 5609 5608 5606 5605 5603 5602 5600 5600 5600 5599 5599 5598 5597 5596 5595 5593 5591 5589 5589 5589 5589 5588 5588 5587 5587 5586 5585 5582 5579 5578 5577 5579 5577 5576 5575 5573 5575 5575 5575 5574